Theta_e
287 287 287 287 287 287 287 287 286 286 286 286 286 286 286 286 286 286 287 287 287 286 286 286 286 285 284 283 282 282 281 281 281 280 280 280 280 280 280 280 280 280 280 280 280 280 280 280 281 281 281 281 281 282 282 283 283 284 284 284 285 285 286 287 287 287 287 288 288 288 288 289 290 290 291 291 291 292 292 292 293 293 293 294 294
287 287 287 287 286 286 286 286 286 285 286 286 286 286 286 286 286 286 286 286 286 285 285 284 284 283 283 282 281 281 280 280 280 280 279 279 280 279 279 279 279 279 280 280 280 280 280 280 280 280 281 281 281 281 281 282 282 282 283 283 284 284 285 286 286 286 286 286 287 286 286 287 288 289 289 290 290 290 291 291 292 292 292 293 293
286 286 286 286 286 286 286 286 285 285 285 286 286 286 285 285 285 285 285 284 284 283 282 282 281 281 281 280 280 280 280 280 279 279 279 279 279 279 279 279 278 278 279 279 279 279 279 279 280 280 280 280 280 281 281 281 281 282 282 283 283 284 284 285 285 286 286 286 286 286 286 286 286 287 287 288 289 289 290 290 290 291 291 292 292
286 286 286 286 286 286 286 286 286 285 285 285 285 285 285 284 284 283 283 282 282 281 281 280 279 279 279 279 279 278 278 278 278 278 278 278 278 278 278 278 278 278 278 278 278 279 279 279 279 279 280 280 280 280 280 281 281 281 282 282 282 283 283 284 284 285 285 285 285 286 286 286 286 286 286 287 287 288 289 289 290 290 290 291 291
287 287 286 286 286 286 286 286 285 285 285 285 285 284 284 284 283 283 282 282 281 281 280 280 279 279 278 278 278 277 277 277 277 276 276 276 276 276 276 277 277 277 277 278 278 278 279 279 279 279 279 279 280 280 280 280 281 281 281 281 282 282 282 283 283 284 284 284 285 285 285 285 286 285 285 286 287 287 288 288 289 289 290 290 291
287 287 287 286 286 286 286 285 285 285 285 284 284 284 283 283 282 282 281 281 280 280 280 279 279 278 278 278 277 277 276 276 275 275 275 275 275 275 275 275 276 276 277 277 277 278 278 278 278 279 279 279 279 279 280 280 280 280 281 281 281 282 282 282 282 283 283 283 284 284 284 285 285 285 285 286 286 287 287 288 288 288 289 289 290
287 287 287 287 286 286 285 285 285 285 284 284 283 283 282 281 281 280 280 280 279 279 279 278 278 278 278 277 277 276 276 275 274 274 274 274 274 274 274 274 275 275 275 276 276 276 277 277 277 278 278 278 279 279 279 280 280 280 280 281 281 281 281 282 282 282 282 282 283 283 283 284 284 285 285 285 286 286 287 287 287 287 288 288 289
288 288 287 287 286 286 285 285 285 284 284 283 282 281 281 280 280 279 279 278 278 278 278 278 278 277 277 277 276 276 275 274 274 273 273 273 273 273 273 274 274 274 274 274 275 275 275 276 276 276 277 277 278 278 279 279 280 280 281 281 281 281 282 282 282 282 282 282 282 282 283 283 283 284 284 285 285 286 286 286 286 286 287 287 288
288 287 287 286 286 285 285 284 284 283 282 281 281 280 279 279 279 278 278 277 277 277 277 277 277 277 276 276 275 275 274 273 273 272 272 272 272 272 273 273 273 273 273 273 273 273 274 274 274 275 275 276 277 277 278 279 279 280 280 280 281 281 282 282 282 282 282 282 282 282 282 282 283 283 284 284 285 285 285 286 286 286 286 287 287
287 286 286 285 285 284 284 283 282 282 281 280 280 279 279 278 278 278 277 277 277 277 277 276 276 276 276 275 275 274 273 272 272 271 271 271 272 272 272 272 272 272 272 272 272 272 273 273 273 274 275 275 275 276 276 277 278 278 279 279 280 280 281 282 282 282 282 282 282 282 282 282 282 283 283 283 284 285 285 285 286 286 286 286 286
285 285 285 284 284 283 283 283 282 281 281 280 279 279 278 278 277 277 277 277 276 276 276 276 275 275 274 274 273 273 272 272 271 271 270 270 271 272 272 272 272 272 272 272 272 272 272 272 273 273 273 273 274 274 274 275 276 276 277 277 278 279 280 280 281 282 282 282 282 283 283 283 283 283 283 283 284 284 285 285 285 285 285 285 286
284 284 284 283 283 283 283 283 282 281 280 279 278 278 277 277 277 276 276 276 276 275 275 275 274 274 273 273 272 271 271 271 271 270 269 269 271 272 271 271 271 271 271 271 271 271 271 271 271 271 271 271 271 272 272 273 274 274 275 276 277 278 278 279 280 280 281 282 282 282 283 283 283 283 283 283 283 284 284 285 285 285 285 285 285
283 283 283 283 283 283 283 282 280 279 278 278 277 277 277 276 276 276 276 275 275 275 274 274 273 273 272 272 271 271 271 271 270 269 269 269 270 271 271 271 271 270 270 270 269 269 269 269 270 270 270 270 270 271 271 271 272 273 274 274 275 275 276 277 278 279 279 280 280 281 282 282 283 283 283 283 284 284 284 284 284 285 285 285 285
282 282 282 282 283 283 282 281 279 278 278 277 277 276 276 276 275 275 275 275 274 274 274 273 272 272 271 271 271 271 271 271 270 269 268 268 270 271 271 270 269 269 269 268 268 269 269 269 269 269 270 270 270 270 271 271 272 273 273 274 274 274 274 275 276 276 277 277 277 278 278 279 280 281 281 281 282 283 283 284 284 284 285 285 285
282 282 282 283 283 282 281 279 278 277 277 276 276 275 275 275 275 274 274 273 273 273 272 271 271 271 271 270 270 271 271 271 270 268 267 268 269 270 269 268 268 268 268 268 268 268 268 269 269 269 269 269 270 270 271 271 272 272 273 273 273 274 274 274 275 275 275 276 276 276 277 277 278 278 279 280 280 281 281 282 283 284 284 285 285
282 282 282 283 282 280 279 278 277 276 276 276 275 274 274 274 274 273 273 272 272 271 271 270 270 270 270 270 270 270 271 270 269 267 266 268 269 269 268 268 268 268 268 268 268 268 268 268 268 269 269 269 269 270 271 271 272 272 272 273 273 274 274 274 275 275 275 276 276 277 277 277 278 278 279 280 280 281 281 282 282 283 283 284 284
282 282 282 281 280 279 277 277 276 275 275 275 274 274 273 273 273 272 272 271 271 271 270 270 269 269 269 269 269 269 270 270 268 266 266 267 268 268 268 267 267 267 268 268 268 268 268 268 268 269 269 269 269 270 271 272 273 273 273 273 274 273 273 274 274 274 275 276 276 277 277 277 278 278 279 279 280 281 282 282 283 283 283 283 283
281 281 280 280 278 277 276 275 275 274 274 274 273 273 273 273 272 271 271 270 270 270 269 269 269 269 268 268 268 268 269 269 267 266 266 267 268 268 268 268 268 268 268 268 268 268 268 268 269 269 269 270 270 271 272 273 273 273 273 273 273 273 273 273 273 273 274 274 275 275 276 276 277 277 278 278 279 279 280 281 282 283 284 284 284
280 280 279 278 277 276 275 274 274 274 273 273 272 272 272 272 271 271 270 270 269 269 268 268 269 268 268 268 268 267 268 268 267 266 266 267 268 268 268 268 268 268 268 268 268 268 269 269 270 270 271 271 272 273 273 274 274 274 274 273 273 273 273 273 273 273 273 273 274 274 275 275 276 276 276 277 277 278 278 279 280 281 283 284 284
279 279 278 277 275 275 274 274 273 273 273 272 272 272 272 271 271 270 270 269 268 268 268 268 268 268 268 268 268 268 267 267 267 266 265 267 268 269 269 269 268 268 268 269 269 269 270 270 270 270 271 272 272 273 273 274 274 274 274 274 274 274 274 274 274 274 274 274 274 275 275 276 276 276 276 276 276 277 278 278 279 280 281 282 284
278 278 277 275 274 274 273 273 272 272 272 272 271 271 271 271 270 270 269 269 268 267 267 267 267 267 268 267 267 268 267 267 267 266 266 267 268 269 269 269 269 269 270 270 270 271 271 271 271 271 272 272 273 273 274 274 274 274 275 275 275 275 275 275 275 275 275 275 275 275 275 275 276 275 276 275 276 276 277 277 278 279 280 281 282
277 276 275 274 273 273 272 272 271 271 271 271 270 270 271 270 270 269 269 268 266 266 266 266 266 266 267 267 267 268 267 267 267 266 266 267 268 270 270 270 270 271 271 271 271 271 271 271 271 271 272 273 273 274 274 274 275 275 275 275 275 275 276 276 275 275 275 275 274 274 274 274 274 274 274 274 274 274 275 276 277 278 279 280 281
276 275 274 273 272 271 271 271 271 271 270 270 270 270 270 270 269 269 268 267 265 265 265 265 264 265 266 266 266 267 267 267 267 266 267 268 269 270 270 271 271 271 272 272 272 272 272 272 271 272 272 273 274 274 274 275 275 275 275 275 275 275 275 275 275 274 274 274 273 273 273 273 273 273 273 273 273 274 274 274 275 276 277 279 280
274 273 272 271 271 270 270 270 270 270 270 270 269 270 270 269 268 268 267 266 264 263 264 264 263 263 264 265 265 265 266 266 266 266 267 268 269 270 270 271 271 272 272 272 272 272 272 272 272 273 273 274 274 274 274 274 274 274 274 274 274 274 274 274 274 274 273 273 273 273 273 273 273 273 273 273 273 273 273 273 274 274 275 277 278
273 272 271 270 270 269 269 269 269 269 269 269 269 269 269 268 267 267 267 265 263 262 263 263 262 262 263 263 264 265 266 266 267 267 267 268 269 269 270 271 271 272 272 272 272 272 272 273 273 274 274 274 274 274 274 274 274 274 274 274 274 273 273 273 272 272 272 272 272 272 272 272 272 272 272 272 272 272 273 273 273 274 274 275 275
272 271 270 270 269 269 269 269 269 269 269 269 269 269 268 267 265 266 266 264 263 262 262 262 262 263 263 263 264 265 266 267 267 267 268 268 269 270 271 271 272 272 272 272 272 272 273 273 274 274 274 274 274 274 273 273 273 273 273 272 272 272 271 271 271 271 271 271 271 271 271 271 271 272 272 272 272 272 272 272 273 273 274 274 275
272 271 270 269 269 268 268 268 268 269 269 268 268 268 268 266 264 265 265 264 262 262 262 262 262 263 264 265 266 266 267 268 268 268 268 269 270 271 271 272 272 272 272 272 273 273 273 273 273 273 273 272 272 272 272 272 271 271 271 270 270 270 270 270 270 270 271 271 271 271 271 271 271 272 272 272 272 272 272 273 273 273 274 274 275
271 270 269 269 268 268 268 268 268 268 268 268 268 268 268 266 264 265 265 264 262 262 262 263 263 264 265 266 267 267 268 268 268 268 269 270 271 272 272 272 272 272 272 272 272 272 272 272 272 271 270 270 270 269 269 269 269 269 269 269 269 269 269 270 270 270 271 271 271 271 271 271 272 272 272 272 272 272 272 273 273 273 273 274 275
270 269 268 268 268 268 267 267 267 267 267 267 267 267 267 266 264 264 266 265 263 263 263 264 265 266 267 267 268 268 268 268 268 269 270 271 272 272 272 272 271 271 271 271 271 270 270 270 269 268 267 267 267 267 267 268 268 268 268 268 268 269 269 269 270 270 270 271 271 271 271 271 272 272 272 272 272 272 273 273 273 273 274 275 276
269 268 268 268 267 267 267 267 267 266 266 266 266 267 267 267 264 263 264 265 264 264 265 266 267 267 268 268 268 268 268 268 269 270 271 271 271 271 271 270 270 269 269 269 268 267 267 266 265 265 265 266 266 266 267 267 267 267 267 267 268 268 268 269 270 270 270 271 271 271 272 272 272 272 272 273 273 273 273 273 273 274 274 275 276
268 268 267 267 267 266 266 266 266 266 266 265 264 264 266 267 267 266 264 264 265 265 266 266 267 268 268 268 267 267 268 268 269 270 271 271 270 270 269 269 268 267 267 266 265 264 263 263 263 264 265 265 265 265 265 265 265 266 266 266 266 267 267 268 269 269 270 270 271 272 272 272 273 273 273 273 273 273 273 273 274 274 275 276 277
268 267 267 266 266 265 265 265 265 265 265 265 264 262 262 264 267 268 267 265 264 265 266 266 266 267 267 267 267 267 267 268 269 270 270 270 269 269 268 267 265 265 265 264 262 261 261 262 262 263 263 263 263 263 263 263 263 264 264 264 265 266 266 267 268 269 270 270 271 272 273 273 273 273 273 273 273 273 273 274 274 275 276 277 277
267 267 266 265 265 265 265 265 264 264 264 263 263 262 261 260 261 264 267 268 267 266 266 266 266 265 265 265 266 267 267 267 269 269 269 268 268 268 266 265 263 263 263 261 260 260 260 261 261 261 261 261 261 261 261 262 262 262 263 263 264 265 266 267 268 269 270 271 272 273 273 274 274 273 273 273 274 274 274 274 275 276 277 277 278
266 266 265 265 264 264 264 264 264 264 263 262 261 261 260 260 259 259 261 264 266 266 266 265 265 265 265 264 265 266 266 267 268 269 268 267 267 266 265 264 263 262 261 260 260 260 260 260 260 261 261 261 261 261 261 261 262 262 262 263 264 265 266 266 267 268 270 272 273 274 274 274 274 274 273 274 274 274 274 275 276 277 278 279 279
265 265 264 264 264 264 264 264 264 263 263 262 262 261 260 260 259 258 258 259 260 263 265 265 264 263 264 264 263 264 265 266 268 268 267 266 265 264 264 264 262 261 260 260 260 260 260 260 260 260 260 260 261 261 261 261 261 262 262 263 264 265 265 266 267 268 270 272 273 273 274 274 274 274 274 274 274 275 276 276 277 278 279 279 280
264 264 264 263 263 263 263 263 263 263 262 262 261 261 260 259 258 259 259 259 258 259 262 264 264 263 263 263 263 263 264 265 267 266 265 264 263 262 262 261 260 260 260 260 260 260 260 260 260 260 260 260 261 261 261 261 262 262 263 263 264 264 265 266 267 268 270 270 271 272 273 274 275 275 275 275 275 276 277 277 278 279 279 280 280
264 263 263 263 263 262 262 262 262 262 262 261 260 260 259 259 259 258 258 259 259 259 260 262 263 263 264 264 264 264 264 265 265 265 264 264 263 262 261 260 259 259 260 260 259 259 259 260 260 260 260 261 261 261 261 262 262 263 263 263 264 264 265 266 267 267 268 269 269 270 271 273 274 275 275 276 276 277 277 278 279 279 280 280 280
263 263 263 263 262 262 262 262 262 262 261 260 260 259 259 259 259 258 258 258 258 259 259 260 261 262 263 263 263 264 264 264 264 264 265 264 264 262 261 260 259 259 259 259 259 259 259 260 260 260 260 261 261 261 262 262 262 263 263 264 264 265 265 266 266 267 267 268 268 268 269 270 272 273 274 275 277 277 278 278 278 279 279 279 280
262 262 262 262 261 261 261 261 261 261 261 260 260 259 259 259 258 258 258 258 258 258 259 260 261 262 262 262 262 262 263 263 263 263 263 263 262 262 261 261 260 259 259 260 260 260 259 260 260 260 260 261 261 262 262 262 263 264 264 264 264 265 265 266 266 266 267 267 267 268 268 269 270 271 272 274 275 277 278 278 278 278 279 279 280
262 262 262 261 261 260 260 260 261 261 261 261 260 259 259 259 258 258 258 258 258 258 259 259 261 262 262 262 262 262 262 262 262 261 261 261 262 262 262 261 260 260 260 260 260 260 260 260 260 260 261 261 261 262 262 263 263 264 264 264 265 265 265 265 266 266 266 267 267 267 268 268 269 270 271 272 274 275 276 277 277 278 278 279 280
261 261 261 261 260 260 260 260 261 261 261 260 260 259 259 259 258 258 258 258 258 258 259 260 261 262 262 261 261 262 262 262 261 261 261 261 262 262 262 261 261 261 261 261 260 260 260 260 260 260 261 261 261 262 262 263 264 264 265 265 265 265 265 265 266 266 266 266 266 267 267 268 269 269 270 271 272 273 274 275 276 277 278 278 279
261 261 261 260 260 260 260 260 261 260 260 259 259 259 259 259 258 258 258 258 258 258 259 261 262 262 262 262 261 261 261 261 261 262 262 262 262 262 262 262 261 261 261 261 261 260 260 260 261 261 261 261 261 261 262 263 264 264 265 265 265 265 265 265 265 266 266 266 266 266 267 267 268 268 269 270 271 272 273 274 275 276 276 277 278
260 260 260 260 260 259 259 260 260 259 259 259 259 259 259 258 258 258 258 258 258 259 259 260 262 262 262 262 261 261 262 262 262 262 262 262 262 262 262 262 262 262 262 262 261 261 260 261 261 261 261 261 261 261 262 263 263 264 265 265 265 266 266 266 265 265 265 266 266 266 266 267 268 268 268 269 270 271 272 273 273 274 275 275 276
260 260 260 260 260 259 259 259 259 259 259 259 259 259 259 258 258 258 258 258 259 259 259 260 261 262 262 262 262 261 262 262 262 262 262 262 262 262 262 262 262 262 262 262 262 262 262 262 262 262 262 262 261 262 262 263 263 264 264 265 265 266 266 266 266 265 265 265 266 266 267 267 267 268 268 269 270 271 271 272 272 273 273 273 274
259 259 259 259 259 259 259 259 258 258 258 258 258 259 259 258 258 258 259 259 259 260 260 260 261 261 262 262 262 262 262 262 262 262 262 262 262 262 262 262 262 262 262 262 262 262 262 262 262 263 263 262 262 262 262 263 263 264 264 265 265 266 266 266 265 265 265 265 266 266 267 267 267 268 268 269 270 270 271 271 271 272 272 272 272
259 259 259 259 259 259 259 259 258 258 258 258 259 259 259 259 259 259 259 259 260 260 260 261 261 261 261 261 261 261 261 261 261 262 262 262 262 262 262 262 262 262 262 262 262 262 262 263 263 263 263 263 262 262 262 263 263 264 264 264 265 266 266 266 266 266 266 266 266 267 267 267 268 268 268 269 269 270 270 270 271 271 271 271 272
259 259 258 258 258 258 258 258 258 258 258 258 259 259 259 259 259 259 260 260 260 260 261 261 261 261 261 261 261 261 261 261 261 261 262 262 262 262 262 262 262 262 262 262 262 262 262 262 263 263 263 263 263 262 262 262 263 263 264 264 265 265 266 265 266 266 267 267 267 267 267 267 268 268 268 268 269 269 269 270 270 271 271 271 272
258 258 258 258 258 258 258 258 258 258 258 259 259 259 259 259 259 260 260 260 260 260 261 261 261 261 261 261 261 261 261 261 261 261 261 262 262 262 262 262 262 262 262 262 262 262 262 262 262 262 262 263 263 263 262 262 263 263 264 264 265 265 265 265 266 266 267 267 267 267 267 267 268 268 268 268 268 268 269 269 269 270 270 270 270
258 258 258 258 258 258 258 258 258 258 258 258 258 259 259 259 260 260 260 260 260 260 260 260 261 261 260 260 261 261 260 261 261 261 261 261 261 261 261 261 261 261 262 262 262 262 262 262 262 262 262 262 263 263 263 262 262 263 263 264 264 265 265 265 266 267 267 267 267 267 267 267 268 268 268 268 268 268 268 268 268 269 269 269 269
258 258 258 258 258 258 258 258 258 258 258 258 258 259 259 259 260 260 260 260 260 260 260 260 260 260 260 260 260 260 260 261 261 261 261 261 261 261 261 261 261 261 261 261 262 262 262 262 262 262 262 262 263 263 262 262 262 262 263 264 264 265 265 266 266 267 267 267 267 267 267 268 268 268 267 268 268 268 268 268 268 268 268 268 268
258 258 258 258 258 258 258 258 258 259 259 258 259 259 259 259 260 260 260 260 260 260 260 260 260 260 260 260 260 260 260 260 260 261 261 261 261 261 261 261 261 261 261 261 261 262 262 262 262 262 262 262 262 262 262 263 263 263 263 263 264 265 265 266 266 266 267 267 267 267 267 268 268 268 267 267 267 267 267 267 268 268 267 267 267
Wind_Speed
9 8 8 7 6 6 6 5 6 7 7 9 11 12 14 15 17 18 19 21 23 25 26 28 29 30 30 31 31 31 32 32 32 32 31 31 31 31 32 32 32 33 33 33 32 30 30 30 31 31 29 28 28 26 25 25 24 24 24 23 22 21 21 19 15 15 22 25 28 32 31 31 32 31 31 32 31 29 30 31 33 35 36 37 38
8 7 6 5 4 4 4 4 5 6 7 9 10 12 14 15 16 17 18 20 22 23 25 26 27 28 29 29 30 31 31 32 31 31 31 32 32 32 31 31 32 32 33 34 33 32 32 32 32 31 29 30 30 28 27 27 26 26 26 24 25 24 22 22 20 17 19 22 25 29 30 29 31 30 28 30 30 29 29 30 30 32 34 36 37
7 5 4 3 3 3 3 3 3 5 7 9 11 12 14 15 16 17 19 20 22 23 24 25 26 27 28 28 29 29 30 30 30 30 30 30 31 32 32 31 30 31 32 33 33 32 31 32 33 32 30 31 32 30 29 28 27 27 28 26 25 27 25 24 24 22 22 23 23 25 27 28 30 31 29 30 30 29 30 31 30 31 32 34 36
5 4 3 2 1 1 2 4 4 7 9 10 12 14 15 16 17 19 21 22 24 25 26 26 27 28 28 28 28 28 28 29 28 28 28 28 29 30 30 30 31 31 31 32 32 32 31 32 33 32 30 31 32 31 28 29 28 27 29 28 26 27 27 25 26 26 25 25 24 24 26 28 31 32 31 30 31 30 30 31 30 30 31 32 34
4 3 2 1 2 3 5 6 7 9 10 12 14 15 16 18 19 21 22 24 25 26 27 28 28 28 29 28 28 27 27 27 27 27 27 26 26 28 29 30 30 31 32 32 32 31 31 32 33 32 31 31 32 31 29 29 29 28 29 30 28 28 28 27 27 27 27 27 28 26 25 26 29 31 31 30 31 31 30 30 30 29 30 31 33
5 4 4 4 5 6 6 8 8 10 11 13 15 16 17 19 20 22 23 25 26 27 27 28 28 28 28 28 28 27 27 26 26 26 25 25 26 27 28 29 30 30 31 32 32 31 31 32 33 32 31 32 33 32 31 30 30 29 29 30 29 28 29 29 28 27 27 29 30 28 26 26 26 28 29 28 29 30 29 29 29 29 30 31 32
5 5 5 6 6 7 7 8 9 11 12 14 16 17 19 20 21 23 24 25 26 26 27 27 27 27 28 28 27 27 28 27 26 25 26 26 27 28 28 29 30 30 31 32 32 32 32 32 32 32 31 32 33 33 32 31 31 30 29 29 28 27 29 30 29 27 27 28 29 27 26 25 25 26 26 24 25 28 28 26 28 30 28 28 30
5 5 5 5 5 6 7 8 10 11 13 15 17 18 19 21 22 22 23 24 24 25 26 27 27 27 27 27 27 27 28 27 26 27 27 27 27 27 28 29 30 31 32 32 32 32 32 32 32 32 32 31 31 31 31 31 31 31 30 27 27 27 28 29 28 26 26 27 28 28 27 25 24 25 24 21 21 26 26 23 26 30 27 26 30
5 4 4 4 4 6 7 9 11 12 14 16 17 19 20 21 22 23 23 24 24 25 25 26 27 27 27 27 27 28 27 27 27 26 26 26 27 28 28 29 29 31 32 33 33 32 32 32 32 32 31 31 30 30 30 30 30 31 31 29 27 27 28 27 26 26 25 24 25 27 25 23 23 23 21 20 21 25 26 22 24 31 29 27 31
5 4 4 4 4 6 8 10 12 14 16 17 18 20 21 22 22 23 24 24 25 25 26 26 26 27 28 28 29 28 28 27 27 25 23 23 25 26 26 27 27 28 29 30 31 30 29 29 29 28 27 27 28 28 29 30 30 30 31 30 29 28 28 27 25 25 24 23 24 25 22 22 24 23 22 22 23 25 26 24 25 30 28 23 28
6 4 3 4 5 7 9 12 14 16 17 18 19 20 21 22 23 23 24 24 25 25 26 26 26 27 28 29 29 29 29 28 27 25 22 21 22 23 24 24 24 24 24 25 26 26 26 25 25 24 24 24 25 26 27 28 29 30 31 31 30 30 30 29 27 25 23 22 24 24 22 23 27 27 24 24 23 22 25 26 26 27 23 15 16
5 4 4 5 7 9 12 14 16 17 18 19 20 21 22 22 23 24 24 25 25 25 26 26 27 27 28 29 29 29 29 29 27 25 23 21 21 22 23 23 22 22 22 22 23 24 25 24 24 24 24 25 25 27 27 27 28 29 30 30 30 30 30 31 30 29 27 25 24 25 25 25 29 30 27 25 24 22 23 25 26 25 24 18 16
5 5 5 6 8 11 14 15 16 18 19 20 20 21 22 23 23 24 25 25 25 25 26 26 27 27 28 29 30 30 30 30 28 25 23 22 22 22 22 22 22 21 21 21 22 23 23 24 24 24 24 24 25 25 25 27 27 27 28 28 29 30 30 31 31 31 30 29 28 28 28 26 27 31 30 25 25 24 22 23 25 24 25 24 24
5 5 6 8 10 13 15 16 17 18 19 20 21 21 22 22 23 23 24 25 25 26 26 27 27 27 28 28 30 30 30 29 28 25 24 22 22 22 22 21 20 20 20 20 21 22 22 23 24 24 23 23 23 23 24 26 27 27 27 28 28 28 28 29 30 30 32 33 34 36 36 34 32 35 36 31 29 29 26 25 25 25 27 28 31
6 6 8 10 12 14 16 17 18 19 19 20 21 21 22 22 22 23 24 25 25 26 26 27 27 27 27 28 29 31 30 29 28 25 23 23 23 22 21 20 19 19 19 19 20 21 22 22 24 25 24 23 23 24 25 27 28 28 29 30 30 29 28 27 28 29 31 33 36 39 40 40 39 39 40 38 36 35 34 33 32 31 31 32 33
7 8 10 11 13 15 16 17 18 19 19 20 21 21 21 22 22 23 24 24 25 26 26 26 27 27 27 27 29 31 30 28 27 25 23 23 23 22 21 20 19 20 20 20 21 21 21 22 23 24 25 26 27 27 27 28 29 30 32 31 30 30 28 27 27 28 29 31 33 36 37 38 38 38 39 39 38 37 36 35 35 34 31 27 27
9 10 11 12 14 15 16 17 18 18 19 20 21 21 21 22 22 23 24 25 26 26 26 27 27 27 27 27 28 30 30 28 26 24 23 23 23 23 22 21 21 21 21 21 21 20 20 22 24 27 29 29 29 29 28 29 29 30 30 29 28 29 29 28 27 27 28 29 31 33 34 36 36 36 38 39 39 38 36 32 29 29 26 19 16
10 10 11 13 14 15 16 17 17 18 19 19 20 21 21 22 22 22 23 25 26 26 26 27 27 26 26 27 27 29 30 27 25 24 23 22 22 23 24 24 24 23 22 21 21 21 25 26 26 29 31 31 30 29 27 27 29 29 29 30 31 32 32 31 30 30 30 30 30 31 32 33 34 34 35 35 35 35 35 34 32 29 24 18 17
11 11 12 13 14 15 16 16 17 18 18 19 19 20 21 21 22 22 23 24 26 26 26 27 27 26 26 26 25 26 28 27 25 24 23 22 22 23 24 25 25 24 25 26 26 27 31 33 30 29 30 29 29 28 27 27 29 30 30 30 29 30 31 32 32 32 33 32 32 32 32 32 33 34 35 35 34 34 34 36 37 33 26 23 22
12 12 14 14 15 15 15 16 16 17 18 19 19 19 20 21 22 23 23 23 24 26 25 26 28 27 26 26 25 24 26 27 26 25 23 22 22 23 24 25 26 28 30 30 31 31 32 33 31 29 28 28 28 29 29 28 30 31 31 29 28 29 32 33 32 32 33 33 32 31 30 30 30 31 31 32 33 34 33 34 36 35 31 29 27
13 14 14 14 15 15 15 15 16 16 17 18 19 19 19 21 22 22 23 24 24 25 25 25 27 28 26 26 25 23 24 26 28 27 24 23 23 23 25 26 28 31 31 29 29 29 29 31 31 30 29 30 30 31 31 30 30 33 32 30 30 31 33 33 31 29 28 27 27 27 27 27 28 29 30 31 32 33 33 33 34 35 35 33 31
14 14 15 14 14 14 14 15 15 16 17 17 19 20 19 20 21 21 22 23 24 25 25 25 27 28 28 26 25 24 24 25 28 29 26 24 23 23 25 26 28 29 30 28 28 29 29 32 34 33 32 32 32 33 34 33 33 33 32 31 32 32 33 33 31 28 27 28 28 29 29 30 31 32 32 33 34 34 35 35 36 36 37 38 37
14 14 14 14 14 14 14 14 14 15 16 17 18 20 19 19 20 20 20 22 24 25 25 25 26 28 29 29 27 26 26 27 29 29 27 25 25 24 25 26 27 28 30 31 31 31 33 35 37 35 34 35 35 36 35 33 31 30 30 31 32 32 32 31 29 28 30 30 30 31 31 31 32 34 33 33 34 34 34 35 36 37 38 40 41
14 14 14 13 14 14 14 14 14 15 16 16 18 19 19 19 20 19 19 21 23 24 25 24 25 27 29 30 30 29 29 30 30 29 27 25 25 25 26 27 29 29 31 32 33 33 34 36 37 37 37 37 37 36 33 31 29 28 30 31 31 30 29 28 28 28 28 28 28 29 30 31 32 34 35 34 33 34 34 35 36 37 38 40 41
14 14 13 13 14 14 15 14 14 15 15 16 17 18 18 19 20 19 19 20 22 23 24 23 23 24 26 28 30 30 30 30 30 29 28 26 26 27 28 29 30 30 31 32 33 33 34 36 37 37 37 36 35 32 31 30 28 28 29 30 31 31 30 29 29 29 28 28 29 30 32 34 35 36 37 36 35 36 36 36 36 37 37 39 42
14 14 13 14 14 15 16 15 14 14 15 15 16 17 17 18 19 19 19 20 21 21 22 22 22 23 23 25 27 29 29 29 29 29 29 29 30 31 31 32 32 31 31 32 33 33 34 35 34 33 33 32 30 29 28 28 28 29 31 32 32 32 31 30 30 29 29 30 31 33 36 37 38 38 38 36 36 36 35 34 36 36 36 36 37
15 14 14 14 14 15 16 16 15 15 15 15 16 16 16 17 18 19 19 20 20 21 21 21 20 22 24 25 26 28 28 27 28 29 30 31 31 32 32 32 32 31 31 32 32 32 32 31 29 27 27 26 26 26 26 27 29 30 32 32 31 30 30 29 29 29 30 32 33 34 37 38 37 36 35 33 35 35 34 33 34 34 35 34 32
15 15 14 14 15 15 16 16 15 15 15 15 15 16 16 16 18 18 18 18 20 20 20 20 20 22 24 26 27 26 25 26 29 30 30 30 31 31 31 31 31 30 30 32 33 32 30 28 26 25 24 23 22 23 23 24 26 27 28 29 29 30 29 29 29 30 31 33 33 34 36 36 35 35 34 34 35 35 34 33 33 34 36 33 28
15 15 15 15 15 15 15 15 15 16 16 16 16 15 15 16 17 18 18 17 18 20 20 21 22 22 22 23 23 23 24 26 28 28 28 28 29 30 30 30 30 30 30 31 31 28 25 24 24 25 25 24 23 22 22 22 23 24 26 27 27 28 29 28 29 30 32 32 33 34 34 34 33 34 32 31 33 34 33 32 32 33 34 32 27
16 16 15 15 15 15 15 15 15 15 16 17 17 17 15 14 15 17 17 15 14 17 20 22 22 22 21 21 20 21 23 25 25 25 25 26 27 28 28 28 29 29 28 27 25 22 20 20 21 21 21 22 22 22 22 23 23 25 28 29 29 29 29 28 28 30 31 32 32 33 33 32 31 31 30 28 30 31 30 31 32 31 31 28 26
17 17 16 15 15 15 15 15 15 15 15 16 17 18 18 15 13 13 13 12 12 13 16 19 18 17 16 17 18 20 21 21 22 23 24 24 24 25 26 27 26 24 23 22 20 19 19 19 18 18 18 18 18 19 20 22 23 25 28 30 31 30 28 28 29 31 32 33 34 34 33 31 30 29 28 28 29 29 30 31 31 30 30 29 25
19 18 16 15 14 15 15 15 15 15 15 15 14 16 18 18 17 14 11 11 12 10 10 11 12 12 12 15 18 19 19 19 21 22 21 22 22 23 24 24 22 20 20 20 19 18 18 17 16 16 17 18 19 20 21 22 23 25 27 29 31 32 31 32 33 33 33 34 34 33 31 29 28 28 28 28 28 28 29 30 30 28 29 28 26
19 18 16 15 15 15 14 15 15 15 15 14 14 13 14 16 18 18 15 14 13 9 5 6 8 11 13 15 17 17 18 18 19 19 19 19 20 22 24 23 18 16 18 21 20 19 19 18 17 17 18 19 21 23 24 25 26 28 28 29 30 33 34 35 34 33 31 31 30 29 28 28 27 27 27 27 27 27 27 28 30 29 26 24 23
19 18 16 16 16 15 14 14 15 15 14 14 13 13 13 13 14 17 18 18 17 15 11 9 10 12 13 15 15 16 17 18 17 17 18 18 18 20 23 23 19 16 16 18 18 19 20 20 20 21 21 22 23 24 26 27 28 29 29 29 30 31 34 34 32 30 29 28 27 27 27 27 26 25 24 25 27 26 26 26 25 24 22 20 20
19 18 17 16 16 15 14 14 14 15 14 13 12 12 12 12 12 14 16 17 18 20 20 19 17 14 13 13 14 16 17 17 16 16 17 17 17 19 23 25 25 24 22 21 20 20 20 21 22 23 24 25 25 26 26 28 28 28 28 29 29 30 32 32 30 29 28 27 28 28 26 26 25 24 24 25 25 24 23 23 22 21 20 20 21
19 19 18 17 17 16 15 14 14 14 14 13 12 12 12 13 13 14 15 15 17 20 22 22 21 17 13 11 13 14 15 15 15 16 17 16 16 19 22 24 26 27 27 27 25 24 22 22 23 24 25 26 27 27 27 28 28 29 28 28 28 29 31 30 29 28 28 27 27 28 27 25 24 24 23 23 24 23 23 22 22 22 21 20 20
19 20 19 18 16 16 15 15 15 14 13 13 12 12 13 14 14 14 14 15 16 18 20 21 22 20 17 14 13 14 15 15 15 16 17 17 17 20 23 23 23 24 26 27 26 25 25 25 25 26 27 27 28 28 29 28 29 29 29 29 28 27 27 27 28 28 27 26 27 27 27 26 24 23 22 21 22 22 22 21 20 20 20 20 18
20 19 18 17 16 16 16 15 15 14 13 13 13 13 14 15 14 13 14 14 15 16 18 19 20 21 20 18 16 16 18 19 19 19 19 19 20 22 23 22 22 22 22 24 25 25 26 27 27 27 27 28 28 29 29 29 29 29 29 29 29 27 27 28 29 28 27 26 27 27 27 26 25 24 23 21 20 21 21 20 19 18 18 18 16
20 19 18 17 16 15 15 16 15 14 14 14 14 14 14 15 14 13 13 13 14 15 17 18 17 17 18 18 17 18 19 21 23 23 22 21 21 22 23 23 23 23 23 25 26 26 27 28 28 28 28 28 29 29 30 30 30 29 29 29 29 28 28 29 29 29 28 27 28 28 28 27 27 27 24 21 20 21 20 19 18 17 16 16 14
19 18 17 17 16 16 16 16 16 16 15 15 15 14 14 15 14 14 13 13 14 15 16 17 16 14 14 15 16 17 19 21 22 22 22 22 22 22 23 24 24 25 25 26 26 26 27 28 28 28 28 28 28 29 29 29 29 29 28 28 27 28 28 28 28 28 28 28 29 29 28 28 29 29 26 23 21 21 20 19 17 16 16 16 15
18 18 17 17 17 16 16 17 17 16 15 15 15 15 15 15 14 13 13 14 15 15 16 16 15 13 11 12 13 14 16 18 18 19 20 21 22 22 22 23 23 24 24 25 25 26 26 27 27 28 28 28 28 28 29 29 29 28 28 28 27 28 28 28 28 28 28 29 29 29 29 30 29 28 26 24 23 22 21 20 19 17 16 16 16
18 18 18 17 17 17 17 17 17 15 15 16 16 16 15 14 13 13 13 14 15 15 15 15 14 12 10 10 11 12 13 14 15 17 18 19 20 21 21 22 22 22 23 23 23 24 25 25 26 26 27 27 28 28 28 29 29 29 29 28 28 29 29 29 29 29 29 29 30 30 30 31 30 27 25 24 23 22 20 19 18 16 14 13 13
18 18 17 17 17 17 17 17 16 15 16 16 16 15 14 14 13 13 14 15 15 14 15 14 13 12 11 10 10 11 12 13 14 15 16 17 18 19 20 21 21 21 21 21 21 22 23 23 24 25 25 25 25 26 27 27 28 28 29 29 28 29 29 30 31 31 30 30 31 31 30 30 28 26 25 24 23 21 18 17 15 13 10 8 5
17 17 17 18 17 17 17 17 16 16 16 15 15 15 14 13 14 14 14 15 14 14 14 13 13 13 12 12 11 11 12 12 13 14 15 16 17 18 18 20 20 21 21 20 20 21 22 23 23 24 24 23 23 24 24 25 26 27 28 29 29 29 30 31 33 32 31 31 31 30 29 28 26 25 24 24 22 20 18 16 15 13 10 7 4
17 17 17 18 18 18 18 16 16 16 16 15 15 15 14 13 14 14 14 14 14 13 13 13 12 12 13 13 13 13 13 13 14 14 15 16 17 17 18 19 20 20 21 20 20 20 21 22 23 24 24 24 23 24 24 25 25 25 27 29 29 29 30 32 33 32 30 29 29 27 26 26 25 24 23 22 20 18 17 16 15 13 12 10 8
16 16 17 18 18 18 18 16 15 16 16 16 16 15 14 13 13 13 13 13 13 13 13 13 12 13 13 13 14 14 14 14 15 15 15 16 16 17 18 19 19 20 20 20 20 20 20 21 22 24 24 24 23 24 24 25 24 25 27 28 28 28 31 33 33 31 29 28 26 24 24 24 23 22 21 20 18 16 16 15 14 13 12 11 10
15 16 17 17 18 18 17 16 16 16 16 16 15 15 15 13 13 12 12 12 12 13 13 13 13 13 14 14 14 15 15 15 16 16 16 16 17 17 18 19 20 20 20 20 20 20 20 20 21 22 23 23 23 23 24 24 24 25 27 29 29 30 32 32 31 29 28 26 24 21 21 21 20 20 20 19 18 17 16 15 15 14 13 12 12
15 16 16 17 18 18 17 17 16 16 16 16 16 15 15 14 14 13 13 13 13 13 13 14 14 14 15 15 15 15 16 16 17 17 17 17 17 18 19 19 20 21 21 21 20 20 20 20 21 21 22 23 22 21 22 23 23 24 26 29 30 30 30 31 30 28 26 25 23 21 19 18 18 18 18 18 18 17 17 16 15 14 14 14 13
15 16 16 17 17 17 17 17 17 17 17 16 16 16 16 15 15 14 14 14 14 14 14 15 15 15 15 16 16 16 17 17 18 18 19 19 19 19 20 20 20 21 22 21 21 21 21 21 21 21 22 22 22 20 20 21 22 23 25 28 29 29 29 29 28 27 25 24 23 21 19 18 17 16 16 16 16 16 16 16 16 15 15 15 14
14 15 16 16 17 17 16 16 17 17 17 17 17 17 17 16 16 16 15 15 16 16 15 16 16 16 17 17 17 18 18 18 19 19 20 20 20 20 21 21 21 22 22 22 22 21 21 21 21 21 21 22 21 20 20 19 19 21 23 25 27 28 27 27 26 25 24 23 22 20 18 17 16 16 16 15 15 15 15 15 15 15 15 15 14
14 14 15 16 16 16 16 17 17 18 18 17 18 18 18 17 17 17 16 17 17 17 17 17 17 18 18 18 18 19 19 19 20 20 20 21 21 21 22 22 22 23 23 23 23 22 22 21 21 21 21 21 21 21 21 20 19 18 20 22 25 26 26 25 24 23 23 22 20 18 17 16 16 15 15 15 15 14 14 14 14 14 14 14 13
Wind_Direction
98 93 90 89 84 78 69 59 48 32 19 12 7 6 3 359 357 355 353 350 350 349 348 347 346 344 343 343 343 343 342 342 341 341 340 339 338 337 335 334 332 330 328 326 326 326 324 321 318 318 319 317 314 312 310 308 307 304 302 298 292 289 280 264 258 274 280 282 287 292 296 297 295 295 295 296 295 294 292 288 286 284 282 282 281
125 123 118 113 101 82 62 45 32 12 356 349 347 347 347 346 344 343 343 343 344 343 343 342 341 340 339 339 338 339 338 338 338 338 338 336 335 334 333 331 328 326 325 323 322 322 320 317 315 316 317 314 310 310 309 307 307 303 300 298 292 290 286 274 268 274 281 282 284 290 294 296 294 295 296 296 296 296 293 290 289 287 285 283 282
140 139 131 109 91 69 38 15 350 334 328 327 330 332 335 337 337 337 339 340 340 341 341 340 339 338 338 337 337 337 336 335 335 335 334 333 331 329 328 327 325 323 321 319 318 318 316 314 312 312 314 311 307 307 307 306 305 302 299 297 293 289 288 282 275 274 281 285 284 285 290 292 292 294 296 296 295 294 291 289 288 286 285 284 284
153 149 142 98 48 336 318 313 305 306 312 318 323 327 331 334 336 337 338 338 339 339 339 339 339 338 338 338 338 337 336 334 334 333 332 331 328 326 324 323 320 318 316 314 314 314 312 310 309 310 310 307 304 304 305 304 302 300 297 296 293 290 289 285 278 275 279 284 283 281 283 287 289 292 295 295 294 293 291 290 289 286 284 283 283
187 190 196 240 280 282 289 296 299 302 309 316 320 325 329 331 333 335 334 335 335 335 335 336 336 337 338 338 337 336 335 333 332 331 330 329 325 322 320 318 315 314 312 310 310 309 308 306 306 308 307 304 302 301 301 301 299 297 294 293 292 291 290 287 283 279 277 279 282 283 282 282 283 287 290 292 293 294 292 290 290 288 287 283 281
222 230 234 245 263 275 284 292 298 303 309 315 319 323 326 328 330 331 331 331 331 331 332 332 333 334 334 334 333 333 332 331 331 330 328 326 322 319 316 313 311 309 307 306 305 304 303 302 302 303 303 301 300 300 299 298 295 293 291 291 291 290 289 288 286 283 280 278 281 284 282 280 279 281 284 287 289 290 290 291 290 288 286 284 282
230 234 239 245 258 271 282 293 301 308 313 317 320 322 324 326 327 327 328 329 329 329 329 330 331 332 331 331 330 330 330 330 330 330 327 324 321 318 315 312 308 306 304 302 301 300 299 298 297 297 296 295 295 296 296 296 294 291 289 288 288 287 286 285 285 284 282 282 283 284 283 282 279 278 281 284 283 282 282 285 287 287 285 284 284
217 221 231 241 256 272 286 299 307 312 315 317 319 320 322 323 325 326 326 327 327 328 329 329 329 329 329 328 328 328 329 329 330 330 328 326 322 318 314 311 307 305 303 301 300 300 299 298 296 295 293 291 290 290 291 291 291 290 289 288 287 285 283 282 283 281 281 281 282 283 284 283 280 278 279 276 270 273 275 275 279 283 284 283 283
195 199 216 238 262 281 296 306 309 312 313 315 317 319 321 323 324 325 326 326 327 328 328 329 328 327 327 327 328 329 329 330 332 332 330 325 320 316 312 310 308 306 305 303 302 301 300 299 297 295 293 290 288 287 286 285 285 286 287 288 288 287 283 281 280 279 279 278 279 282 283 282 279 277 275 265 259 268 275 273 272 278 282 283 282
184 193 214 243 271 292 303 308 309 311 313 315 317 318 320 321 322 323 324 325 326 327 327 328 327 327 328 328 328 329 329 332 334 334 329 322 317 314 311 309 309 307 307 306 306 306 306 304 302 299 296 294 291 289 287 285 283 283 284 285 286 285 284 283 280 277 276 275 277 280 281 279 278 276 273 270 267 268 271 268 268 275 280 281 282
189 202 230 261 285 301 306 308 310 312 313 314 315 316 317 319 320 322 323 324 325 326 327 327 328 329 329 329 330 330 330 333 336 334 330 322 314 310 308 307 307 307 307 307 308 309 309 308 307 305 303 301 298 295 293 290 287 285 283 282 280 279 280 282 283 281 278 275 275 276 276 276 279 279 276 276 275 269 267 265 264 269 274 272 280
203 225 256 281 297 306 307 308 309 310 312 313 314 316 317 319 321 322 323 324 325 327 327 327 328 329 329 330 330 330 330 334 336 335 330 322 313 309 307 306 306 306 307 307 306 307 308 307 306 305 303 303 300 299 297 295 292 289 286 283 280 277 276 277 279 280 281 280 279 277 274 276 279 280 279 280 280 276 272 267 261 261 264 262 263
224 251 271 289 302 306 306 307 308 309 312 313 314 316 317 319 321 322 323 324 324 325 326 326 328 329 331 331 330 329 331 334 336 333 328 320 314 311 309 306 306 305 305 305 304 304 304 305 305 304 303 303 303 301 299 298 296 293 290 287 283 280 278 276 276 277 279 281 282 279 275 276 278 279 280 283 286 284 277 271 265 261 260 260 260
237 259 278 294 303 305 303 304 305 307 310 311 313 315 316 319 321 321 321 322 323 324 325 327 328 330 331 331 329 328 330 333 333 331 327 321 316 314 311 307 306 303 302 303 302 302 303 304 304 304 304 304 303 302 301 300 299 296 294 291 287 285 283 281 279 278 278 278 278 278 277 277 279 280 281 283 284 283 280 277 275 269 264 265 267
250 269 286 296 299 299 299 300 302 305 308 310 312 314 316 319 321 321 321 322 323 324 326 327 327 329 330 330 328 327 329 331 331 331 328 321 316 315 312 308 306 304 302 302 301 301 302 302 301 301 301 301 300 300 299 299 299 298 297 295 292 290 287 284 283 280 277 275 274 275 277 277 278 278 279 279 277 275 275 275 275 275 272 271 270
260 274 287 293 293 293 295 297 301 305 307 309 311 314 317 320 321 321 321 321 322 324 324 325 326 327 329 330 327 325 326 330 331 331 327 319 316 317 313 310 307 304 302 302 302 300 300 300 300 300 299 297 297 297 297 296 295 294 292 290 290 289 287 287 286 282 279 277 275 275 276 276 276 276 276 277 276 275 274 270 267 267 267 267 266
262 274 283 288 288 290 293 297 301 304 306 308 311 314 317 319 321 321 320 320 321 322 322 323 325 327 328 328 327 324 325 330 333 331 326 320 317 316 314 311 309 305 303 303 302 300 297 297 297 296 295 294 294 295 296 296 294 291 291 293 295 295 294 294 292 287 284 282 279 278 278 277 277 277 276 277 277 278 279 274 266 260 257 256 259
261 273 280 283 284 287 292 296 300 302 305 308 310 313 316 318 318 319 318 317 318 319 320 321 323 326 326 327 327 324 324 330 334 332 327 321 315 314 314 313 309 305 303 302 299 296 294 293 289 288 291 292 293 295 296 295 294 291 290 292 290 289 291 292 291 289 288 286 283 281 280 280 280 280 280 280 279 279 278 276 274 270 261 251 251
264 272 276 278 280 285 290 294 298 301 305 307 308 311 314 315 315 315 314 314 315 316 319 320 321 324 325 325 326 325 325 330 335 334 329 319 314 314 314 311 307 304 303 300 297 294 293 293 291 289 289 291 293 295 296 295 294 290 287 285 281 280 284 285 284 284 283 281 279 276 276 277 278 280 281 281 281 281 278 275 275 275 272 265 259
264 269 272 274 278 284 288 292 295 299 302 304 305 309 312 312 312 312 312 312 313 315 318 320 320 321 324 325 326 328 328 330 334 335 327 315 313 315 312 308 306 302 299 295 293 292 293 295 296 293 291 291 293 295 296 295 293 289 285 282 278 279 283 282 280 279 277 275 274 274 274 276 277 278 279 281 281 281 280 278 274 271 270 272 271
261 265 268 272 277 283 286 289 293 297 299 301 303 305 309 309 309 310 311 312 313 314 318 320 319 319 322 323 325 329 331 331 333 334 327 314 312 314 311 308 304 299 296 293 292 294 296 296 297 294 292 292 293 294 294 294 291 288 286 284 283 285 288 288 287 288 286 283 284 284 283 283 282 280 280 281 281 280 278 277 274 269 265 263 265
259 262 266 272 276 280 283 286 291 295 296 298 300 303 307 307 307 309 310 311 313 314 317 319 318 317 320 322 324 329 333 333 333 333 326 315 312 314 312 307 304 301 299 297 296 296 296 296 295 294 292 292 292 293 293 294 294 294 294 294 294 294 296 296 297 298 296 294 293 290 287 286 284 282 281 279 279 279 278 276 275 272 268 262 258
259 262 267 272 275 278 282 285 288 291 293 295 297 301 306 306 305 308 311 312 312 312 315 318 317 316 319 322 325 330 334 335 334 332 325 316 314 315 312 308 306 304 300 298 296 296 296 296 294 292 289 290 291 293 293 295 298 299 299 299 298 298 298 297 297 295 292 289 287 284 282 281 280 279 278 277 277 278 277 277 277 276 274 270 263
259 264 269 273 276 278 281 284 287 289 292 295 298 301 305 306 306 309 311 311 310 309 312 315 315 315 318 321 324 330 334 333 332 329 323 316 315 316 313 309 307 305 302 299 297 296 295 295 294 293 293 295 298 300 301 302 302 300 298 298 299 299 298 295 292 290 287 284 281 279 278 278 277 277 277 278 279 279 279 279 279 277 275 275 272
260 266 269 272 276 278 280 282 286 288 290 294 298 302 306 306 307 309 310 308 306 306 308 311 311 312 315 317 320 326 328 327 326 326 323 319 317 316 313 310 309 307 304 301 299 298 296 296 298 299 301 303 304 303 303 303 301 298 297 299 300 299 297 293 290 288 284 281 279 278 278 278 278 279 282 282 282 282 281 280 279 277 277 277 276
260 264 267 270 273 275 278 280 282 285 288 293 297 301 305 305 306 309 309 306 304 303 304 306 308 309 311 312 315 319 322 322 322 324 324 321 320 319 317 313 311 309 306 302 300 298 297 296 298 300 302 303 302 300 299 299 298 298 298 298 298 296 294 292 290 286 283 281 280 280 281 283 284 284 285 284 281 279 279 280 279 277 276 276 275
259 261 263 267 269 273 278 282 284 285 288 293 297 300 302 304 304 306 306 304 302 300 300 301 302 304 306 309 312 313 316 319 320 322 323 322 322 321 318 315 313 312 309 307 305 304 303 303 302 302 304 305 304 302 300 299 299 299 300 300 299 298 296 293 290 286 284 283 283 283 284 286 286 284 283 281 278 277 278 277 276 275 274 274 272
256 258 260 264 267 271 276 281 285 288 291 293 297 301 302 303 302 303 305 303 298 295 296 297 298 301 304 307 309 310 313 317 318 319 321 322 321 320 318 318 319 319 316 315 314 314 314 312 311 311 313 314 311 307 305 303 302 302 302 302 302 300 299 296 292 288 286 284 283 283 284 285 283 282 281 278 276 278 278 276 273 273 273 271 268
254 257 258 261 265 270 274 278 284 289 292 295 299 301 303 306 304 303 306 308 300 294 292 293 296 300 302 303 307 310 312 314 315 317 320 321 321 321 322 323 324 323 320 319 318 318 319 318 318 320 323 323 322 319 317 315 313 311 309 308 306 305 304 300 296 292 290 289 286 285 285 285 283 282 280 275 274 276 277 274 272 271 270 267 263
252 254 256 260 264 268 272 276 282 288 292 298 302 302 302 304 301 298 302 306 297 286 283 285 290 296 299 301 305 307 307 309 313 317 320 322 324 325 326 327 327 326 325 325 324 324 327 328 327 328 328 326 326 326 325 324 321 318 317 316 314 312 310 305 302 299 297 294 290 287 286 284 282 282 280 275 275 276 275 273 272 270 269 266 263
250 252 255 258 262 267 272 277 283 287 291 297 303 306 306 304 299 298 303 307 300 285 280 283 287 292 297 303 307 308 308 311 316 320 324 327 330 331 332 334 335 335 336 338 337 337 338 335 331 331 331 329 329 327 327 326 323 321 320 319 317 316 313 310 308 306 302 297 292 288 285 282 281 282 281 278 278 278 277 276 274 269 267 266 264
249 253 256 258 261 266 272 279 283 286 291 295 300 306 310 311 311 311 310 311 313 307 293 288 291 295 301 310 314 314 315 317 321 325 329 332 334 336 338 340 342 343 348 354 353 348 343 337 331 332 333 331 329 327 325 323 321 320 319 316 314 314 312 311 311 308 302 296 291 287 284 282 281 281 282 280 279 278 276 275 272 269 269 269 267
249 252 255 258 262 265 271 277 281 284 289 294 297 302 308 312 315 315 315 317 322 323 303 285 296 304 310 315 318 318 319 320 324 330 334 337 339 339 340 344 349 349 355 1 359 349 342 337 333 332 331 328 327 326 325 323 321 319 317 314 311 310 311 313 314 312 305 298 292 287 285 284 283 281 280 279 278 276 275 274 272 271 270 266 263
248 251 254 257 261 265 270 274 278 282 285 289 293 297 301 306 310 312 315 319 321 320 312 307 315 323 325 322 321 322 323 325 330 335 339 342 344 341 341 350 358 359 359 2 357 347 342 339 334 332 331 329 328 327 325 324 323 321 319 316 313 312 314 317 317 314 310 307 302 295 289 286 284 281 278 277 276 274 273 272 271 269 268 267 267
247 250 254 256 260 266 270 271 275 279 281 284 287 291 296 301 301 302 305 308 309 310 312 316 324 332 334 330 327 327 328 330 334 340 345 347 346 344 349 357 359 356 355 356 353 348 344 339 334 332 331 329 329 328 325 325 324 323 321 319 317 316 318 318 317 315 315 316 314 308 299 291 286 282 279 276 275 273 271 271 272 273 274 278 280
246 249 251 255 260 265 268 270 272 274 276 280 284 286 291 294 293 294 296 296 298 301 306 314 322 327 335 342 340 336 336 335 335 340 346 348 347 351 358 359 355 350 350 350 349 346 343 338 334 333 331 329 329 328 326 325 325 324 322 320 318 317 318 318 317 318 319 320 320 320 315 306 297 292 286 278 273 272 272 274 278 279 279 284 290
245 248 251 256 260 263 266 268 269 270 272 276 280 283 285 284 284 286 289 291 294 298 302 311 319 323 331 344 349 347 346 343 336 339 348 354 357 1 4 1 354 348 345 343 343 341 338 338 337 335 332 331 330 329 328 327 326 326 325 324 321 318 317 318 319 321 320 320 321 323 322 318 314 309 301 289 280 276 275 277 281 283 283 286 292
246 249 253 257 259 262 265 267 267 268 269 271 274 276 277 277 279 282 285 288 292 295 300 308 314 318 326 337 347 353 350 342 337 342 353 0 2 2 2 359 354 348 341 339 341 340 337 338 339 337 334 333 331 330 330 328 327 326 327 327 326 323 321 322 324 325 324 323 323 323 322 321 321 319 314 305 297 290 284 281 280 282 283 284 281
246 250 254 258 260 261 264 267 267 268 269 270 272 272 271 273 277 279 283 287 289 292 298 303 307 315 324 332 344 352 347 335 332 338 347 354 358 359 359 357 353 349 344 343 344 342 339 338 338 337 336 335 334 333 332 330 329 328 328 329 330 329 328 327 327 327 327 327 325 325 324 322 321 321 319 314 310 306 298 290 282 275 274 274 269
249 252 255 257 258 259 261 263 265 266 267 268 270 270 268 271 275 278 282 286 287 290 296 298 302 313 324 330 339 343 334 324 325 333 341 347 353 357 359 357 353 349 347 346 346 344 340 338 336 336 336 337 337 336 335 332 331 331 331 331 332 331 331 330 328 328 329 328 327 326 325 324 324 323 320 318 320 319 314 308 300 288 275 267 261
251 254 256 257 258 260 262 261 262 265 267 268 268 267 268 270 274 276 278 281 283 288 292 294 299 312 325 329 332 329 319 316 324 334 340 345 349 353 355 355 351 348 347 347 346 344 340 337 336 336 337 338 339 339 338 337 335 334 333 333 332 333 333 333 331 330 330 329 329 329 327 327 326 324 319 319 325 329 327 323 317 307 292 276 263
251 255 257 258 260 261 262 263 265 266 265 263 263 265 268 271 272 273 274 277 281 285 289 292 299 310 319 326 327 321 316 320 330 337 341 345 347 350 351 351 349 348 347 347 346 344 340 338 338 338 338 339 340 340 339 339 338 337 335 334 333 334 335 335 334 334 333 332 331 332 331 330 330 327 323 325 332 337 338 336 329 320 309 293 271
253 257 259 259 261 262 263 265 267 265 262 262 264 266 267 268 268 270 272 275 277 280 284 291 300 307 313 320 323 320 320 327 333 336 339 342 343 345 346 346 346 346 346 346 347 345 342 340 340 341 341 342 342 341 340 339 339 339 338 336 334 334 336 337 336 335 334 334 334 334 333 332 332 332 333 337 341 345 348 349 347 341 333 319 290
255 257 258 260 262 264 263 264 265 265 265 266 266 266 266 267 268 269 269 271 274 278 283 289 298 304 308 314 319 320 323 328 331 333 336 338 339 341 342 342 343 344 345 346 347 346 345 344 343 343 345 347 348 347 344 342 341 341 341 339 337 337 339 340 338 336 335 335 336 338 338 337 337 339 342 346 350 353 356 1 5 4 4 7 24
255 257 259 262 264 264 264 265 266 266 267 266 265 266 266 266 267 268 268 270 275 279 284 290 298 303 305 310 316 319 322 324 327 330 333 334 336 337 338 338 340 341 342 345 346 346 345 345 344 343 345 348 352 352 349 346 344 344 344 344 341 340 340 341 340 339 339 339 339 341 343 344 345 347 349 352 356 360 4 10 15 18 22 30 41
257 259 261 263 264 265 266 267 266 266 266 266 267 268 268 266 266 267 269 272 277 282 287 293 298 300 303 307 311 315 319 321 323 327 330 331 333 334 334 335 336 337 339 342 344 344 344 344 343 343 343 346 350 353 352 349 347 346 347 347 346 344 343 343 343 346 347 345 344 347 349 350 354 357 358 359 4 9 14 20 25 31 38 44 51
260 261 262 264 265 266 267 269 268 267 266 266 268 270 271 272 272 272 272 276 280 283 288 293 296 298 301 305 308 311 316 318 320 324 327 328 330 331 331 331 332 333 335 338 341 342 343 342 342 342 341 343 347 351 352 350 349 348 347 348 349 348 346 345 347 351 352 350 348 351 355 357 1 5 8 10 13 18 23 29 33 40 48 54 61
260 262 263 264 264 265 267 269 270 269 269 270 271 272 274 276 277 278 279 281 283 285 288 292 294 297 300 302 305 309 312 314 316 320 322 324 326 326 326 327 328 329 331 333 337 339 341 341 340 341 341 341 343 347 350 351 350 349 348 347 347 347 347 347 350 354 356 354 354 357 0 3 7 10 15 20 23 26 31 36 39 46 55 60 64
261 263 264 265 265 266 268 271 273 273 273 274 274 274 276 277 279 281 283 283 284 287 290 292 293 297 299 300 304 308 309 310 313 316 317 319 322 322 322 323 324 325 326 329 331 334 337 338 338 339 339 340 341 343 346 347 348 350 349 346 344 345 348 351 354 357 358 357 358 0 3 8 13 17 21 28 32 35 40 44 47 52 59 62 64
263 265 266 267 267 269 272 273 274 274 274 274 275 276 278 280 281 282 284 286 286 287 290 292 294 297 299 301 303 306 307 309 311 313 314 316 318 318 319 320 320 321 323 325 326 329 332 333 334 336 337 338 338 340 341 341 344 349 349 344 342 346 350 353 356 0 1 360 1 4 6 9 16 21 25 31 36 40 46 50 53 56 60 61 62
267 268 270 271 272 274 274 274 274 275 275 275 276 278 280 282 284 284 286 287 289 290 292 294 295 296 297 300 303 305 306 308 309 311 313 314 315 316 317 317 318 319 320 321 323 325 327 329 331 332 333 334 335 337 337 336 338 345 346 341 340 345 351 353 355 360 2 1 3 7 9 12 18 23 27 32 36 42 48 54 58 61 63 64 64